sat.trackr.live / text

‹ back to catalog

STARLINK-35544

NORAD 65922 · 2025-225N

PAYLOAD ACTIVE UNKNOWN

§ Identity

Operator
Country
US
Launch date
2025-10-08
Launch site
AFWTR
Launch vehicle
Mass (kg)
RCS (m²)

Purposes: comms

External: N2YO · Heavens-Above · Gunter

§ Orbital elements

Epoch: 2026-05-25T02:03:11.159712Z

Period
93.90 min
Inclination
53.1590°
Eccentricity
0.0001014
Mean motion
15.33571166 rev/d
Perigee alt
464.5 km
Apogee alt
465.9 km
Semi-major
6,843.3 km
B*
7.2735e-4
RAAN
170.9023°
Arg perigee
99.2139°
Mean anomaly
260.8978°
Rev number
3,610

§ Raw data

STARLINK-355441 65922U 25225N   26145.08554583  .00023640  00000+0  72735-3 0  99972 65922  53.1590 170.9023 0001014  99.2139 260.8978 15.33571166 36108

JSON: /api/v1/satellites/65922 · /tle

For live sub-satellite position, see the globe view (requires WebGL).

§ Visibility from observer

Set your observer location to see the next 7 days of passes ≥ 10°. The values pass through the URL so the page stays shareable.

No JS? Fill the form by hand. The geolocation button needs JavaScript.